This demonstration page uses our WeatherBlox Daily Observations layout. Learn more.

Left ArrowRight Arrow

Hourly Observations for April 7, 2017

Temp ( °F °C ) Dew Point ( °F °C ) Humidity (%) Winds ( mph kmh ) Pressure ( in mb ) Visibility ( mi km ) Precip ( " mm )
12:59 am 00:59 Clear 54 12.2 31 -0.6 42 42 W 24 39 29.56 1001 10 16 0.00 0.00
1:59 am 01:59 Clear 52 11.1 32 0 47 47 W 21 33 29.56 1001 10 16 0.00 0.00
2:59 am 02:59 Clear 51 10.6 32 0 48 48 WSW 20 31 29.54 1001 10 16 0.00 0.00
3:59 am 03:59 Clear 50 10 32 0 50 50 WSW 16 26 29.54 1001 10 16 0.00 0.00
4:59 am 04:59 Clear 49 9.4 32 0 52 52 WSW 17 28 29.54 1001 10 16 0.00 0.00
5:59 am 05:59 Partly Cloudy 49 9.4 32 0 52 52 W 17 28 29.56 1001 10 16 0.00 0.00
6:59 am 06:59 Partly Cloudy 49 9.4 30 -1.1 48 48 W 20 31 29.58 1002 10 16 0.00 0.00
7:59 am 07:59 Partly Cloudy 49 9.4 30 -1.1 48 48 W 20 31 29.60 1002 10 16 0.00 0.00
8:59 am 08:59 Partly Cloudy 50 10 28 -2.2 43 43 W 21 33 29.61 1003 10 16 0.00 0.00
9:59 am 09:59 Mostly Cloudy 52 11.1 29 -1.7 41 41 W 20 31 29.62 1003 10 16 0.00 0.00
10:59 am 10:59 Mostly Cloudy 51 10.6 29 -1.7 43 43 W 20 31 29.64 1004 10 16 0.00 0.00
11:59 am 11:59 Mostly Cloudy 53 11.7 14 -10.2 21 21 W 15 24 29.64 1004 10 16 0.00 0.00
12:59 pm 12:59 Mostly Cloudy 54 12.2 27 -2.8 35 35 WNW 21 33 29.64 1004 10 16 0.00 0.00
1:59 pm 13:59 Cloudy 53 11.7 27 -2.8 37 37 WNW 20 31 29.65 1004 10 16 0.00 0.00
2:59 pm 14:59 Cloudy 54 12.2 26 -3.3 34 34 WNW 23 37 29.66 1004 10 16 0.00 0.00
3:59 pm 15:59 Cloudy 54 12.2 26 -3.3 34 34 WNW 23 37 29.67 1005 10 16 0.00 0.00
4:59 pm 16:59 Cloudy 53 11.7 27 -2.8 37 37 WNW 20 31 29.68 1005 10 16 0.00 0.00
5:59 pm 17:59 Mostly Cloudy 53 11.7 28 -2.2 38 38 WNW 22 35 29.72 1006 10 16 0.00 0.00
6:59 pm 18:59 Cloudy 51 10.6 28 -2.2 41 41 WNW 20 31 29.76 1008 10 16 0.00 0.00
7:59 pm 19:59 Mostly Cloudy 50 10 30 -1.1 46 46 WNW 15 24 29.80 1009 10 16 0.00 0.00
8:59 pm 20:59 Mostly Cloudy 49 9.4 29 -1.7 46 46 W 14 22 29.83 1010 10 16 0.00 0.00
9:59 pm 21:59 Partly Cloudy 48 8.9 31 -0.6 52 52 W 9 15 29.86 1011 10 16 0.00 0.00
10:59 pm 22:59 Mostly Cloudy 49 9.4 31 -0.6 50 50 NNW 13 20 29.88 1012 10 16 0.00 0.00
11:59 pm 23:59 Partly Cloudy 46 7.8 28 -2.2 50 50 NNW 18 30 29.91 1013 10 16 0.00 0.00

Powered by AerisWeather